Marion, IN

1:43 AM EDT on August 19, 2017 (GMT -0400)
Marion Municipal

Weather History for KMZZ - November, 2013

Change the Weather History Date:

Friday, November 8, 2013

  Actual Average (KMIE) Record (KMIE)
Temperature  
Mean Temperature 38 °F -  
Max Temperature 78 °F 50 °F 72 °F (1999)
Min Temperature 29 °F 34 °F 10 °F (1991)
Degree Days  
Heating Degree Days 27    
Moisture  
Dew Point 29 °F    
Average Humidity 75    
Maximum Humidity 96    
Minimum Humidity 48    
Precipitation  
Precipitation 0.00 in - - ()
Sea Level Pressure  
Sea Level Pressure 30.26 in    
Wind  
Wind Speed 7 mph (WSW)    
Max Wind Speed 10 mph    
Max Gust Speed -    
Visibility 9 miles    
Events      
Averages and records for this station are not official NWS values.
T = Trace of Precipitation, MM = Missing Value Source: NWS Daily Summary

Daily Weather History Graph

Daily Weather History Graph

Search for Another Location

Airport or City:

Trip Planner

Search our weather history database for the weather conditions in past years. The results will help you decide how hot, cold, wet, or windy it might be!

Date:

Astronomy

Nov. 08, 2013 Rise Set
Actual Time 7:21 AM EST 5:31 PM EST
Civil Twilight 6:52 AM EST 6:00 PM EST
Nautical Twilight 6:19 AM EST 6:32 PM EST
Astronomical Twilight 5:47 AM EST 7:04 PM EST
Moon 12:16 PM EST (11/8) 10:51 PM EST (11/8)
Length of Visible Light 11h 07m
Length of Day
10h 10m
Waxing Crescent, 33% of the Moon is Illuminated
Nov 8
Waxing Crescent
Nov 10
First Quarter
Nov 17
Full
Nov 25
Last Quarter
Dec 2
New

Hourly Weather History & Observations

Time (EST) Temp. Windchill Dew Point Humidity Pressure Visibility Wind Dir Wind Speed Gust Speed Precip Events Conditions
12:15 AM 33.3 °F 25.7 °F 29.8 °F 87% 30.24 in 7.0 mi WNW 9.2 mph - N/A   Clear
12:35 AM 32.4 °F 24.6 °F 29.7 °F 90% 30.24 in 7.0 mi West 9.2 mph - N/A   Clear
12:55 AM 31.8 °F 24.6 °F 30.0 °F 93% 30.24 in 7.0 mi West 8.1 mph - N/A   Clear
1:15 AM 31.5 °F 24.2 °F 30.0 °F 94% 30.24 in 7.0 mi West 8.1 mph - N/A   Clear
1:35 AM 31.1 °F 24.5 °F 29.8 °F 95% 30.24 in 7.0 mi West 6.9 mph - N/A   Clear
1:55 AM 30.9 °F 24.3 °F 29.8 °F 96% 30.24 in 5.0 mi WSW 6.9 mph - N/A   Clear
2:15 AM 30.7 °F 24.1 °F 29.7 °F 96% 30.25 in 7.0 mi WSW 6.9 mph - N/A   Clear
2:35 AM 30.6 °F 23.1 °F 29.3 °F 95% 30.25 in 10.0 mi WSW 8.1 mph - N/A   Scattered Clouds
2:55 AM 30.6 °F 23.8 °F 29.1 °F 94% 30.25 in 7.0 mi WSW 6.9 mph - N/A   Clear
3:15 AM 30.2 °F 24.3 °F 28.9 °F 95% 30.25 in 7.0 mi WSW 5.8 mph - N/A   Clear
3:35 AM 30.2 °F 25.4 °F 28.8 °F 94% 30.25 in 7.0 mi WSW 4.6 mph - N/A   Clear
3:55 AM 30.0 °F 25.2 °F 28.6 °F 94% 30.25 in 7.0 mi WSW 4.6 mph - N/A   Clear
4:15 AM 30.2 °F 24.3 °F 28.8 °F 94% 30.25 in 7.0 mi WSW 5.8 mph - N/A   Clear
4:35 AM 30.6 °F 23.1 °F 29.1 °F 94% 30.26 in 10.0 mi West 8.1 mph - N/A   Clear
4:55 AM 30.7 °F 23.3 °F 29.1 °F 94% 30.26 in 7.0 mi West 8.1 mph - N/A   Clear
5:15 AM 30.7 °F 24.1 °F 29.1 °F 94% 30.26 in 10.0 mi West 6.9 mph - N/A   Clear
5:35 AM 30.2 °F 23.4 °F 28.8 °F 94% 30.27 in 10.0 mi West 6.9 mph - N/A   Clear
5:55 AM 30.2 °F 23.4 °F 28.8 °F 94% 30.28 in 7.0 mi West 6.9 mph - N/A   Clear
6:15 AM 30.2 °F 24.3 °F 28.8 °F 94% 30.28 in 7.0 mi West 5.8 mph - N/A   Clear
6:35 AM 30.2 °F 23.4 °F 28.6 °F 94% 30.29 in 10.0 mi West 6.9 mph - N/A   Clear
6:55 AM 30.0 °F 23.2 °F 28.4 °F 94% 30.30 in 7.0 mi West 6.9 mph - N/A   Clear
7:15 AM 29.8 °F 23.0 °F 28.4 °F 94% 30.30 in 7.0 mi West 6.9 mph - N/A   Clear
7:35 AM 29.8 °F 26.3 °F 28.4 °F 94% 30.31 in 7.0 mi West 3.5 mph - N/A   Clear
7:55 AM 29.8 °F 24.9 °F 28.6 °F 95% 30.32 in 7.0 mi WNW 4.6 mph - N/A   Clear
8:15 AM 30.6 °F 25.8 °F 29.1 °F 94% 30.33 in 7.0 mi West 4.6 mph - N/A   Clear
8:35 AM 31.5 °F 25.8 °F 29.8 °F 94% 30.34 in 7.0 mi West 5.8 mph - N/A   Clear
8:55 AM 32.2 °F 25.8 °F 30.4 °F 93% 30.35 in 7.0 mi West 6.9 mph - N/A   Clear
9:15 AM 32.9 °F 27.5 °F 31.3 °F 94% 30.35 in 7.0 mi West 5.8 mph - N/A   Clear
9:35 AM 33.8 °F 29.6 °F 31.6 °F 92% 30.35 in 7.0 mi West 4.6 mph - N/A   Clear
9:55 AM 35.1 °F 31.0 °F 31.8 °F 88% 30.35 in 7.0 mi WNW 4.6 mph - N/A   Clear
10:15 AM 36.3 °F 31.6 °F 31.6 °F 83% 30.36 in 7.0 mi NW 5.8 mph - N/A   Clear
10:35 AM 37.2 °F 33.6 °F 31.1 °F 79% 30.36 in 10.0 mi NW 4.6 mph - N/A   Clear
10:55 AM 38.3 °F 33.2 °F 31.3 °F 76% 30.35 in 7.0 mi NW 6.9 mph - N/A   Clear
11:15 AM 39.2 °F 35.0 °F 31.3 °F 73% 30.35 in 10.0 mi NW 5.8 mph - N/A   Clear
11:35 AM 40.3 °F 35.5 °F 30.4 °F 68% 30.35 in 10.0 mi WNW 6.9 mph - N/A   Clear
11:55 AM 41.2 °F 37.3 °F 29.5 °F 63% 30.34 in 10.0 mi West 5.8 mph - N/A   Clear
12:15 PM 41.5 °F 37.8 °F 28.9 °F 61% 30.34 in 10.0 mi WSW 5.8 mph - N/A   Clear
12:35 PM 42.1 °F - 27.3 °F 56% 30.32 in 10.0 mi Calm Calm - N/A   Clear
12:55 PM 42.8 °F 41.1 °F 27.7 °F 55% 30.31 in 10.0 mi West 3.5 mph - N/A   Clear
1:15 PM 43.9 °F 38.8 °F 27.9 °F 53% 30.30 in 7.0 mi WNW 9.2 mph - N/A   Clear
1:35 PM 44.2 °F 40.3 °F 27.5 °F 52% 30.29 in 10.0 mi West 6.9 mph - N/A   Clear
1:55 PM 45.1 °F 42.0 °F 27.1 °F 49% 30.28 in 10.0 mi West 5.8 mph - N/A   Clear
2:15 PM 45.5 °F 42.5 °F 27.5 °F 49% 30.28 in 10.0 mi West 5.8 mph - N/A   Clear
2:35 PM 45.7 °F 42.7 °F 27.7 °F 49% 30.27 in 10.0 mi SW 5.8 mph - N/A   Clear
2:55 PM 46.0 °F 44.8 °F 28.0 °F 50% 30.27 in 10.0 mi West 3.5 mph - N/A   Clear
3:15 PM 47.1 °F - 28.6 °F 49% 30.27 in 10.0 mi SW 8.1 mph - N/A   Clear
3:35 PM 47.3 °F - 28.4 °F 48% 30.26 in 10.0 mi SW 8.1 mph - N/A   Clear
3:55 PM 47.5 °F - 28.4 °F 48% 30.26 in 7.0 mi SW 5.8 mph - N/A   Clear
4:15 PM 47.3 °F - 29.1 °F 49% 30.26 in 10.0 mi SW 8.1 mph - N/A   Clear
4:35 PM 47.1 °F - 29.7 °F 51% 30.24 in 7.0 mi SW 5.8 mph - N/A   Clear
4:55 PM 45.5 °F 43.2 °F 30.9 °F 57% 30.24 in 7.0 mi SSW 4.6 mph - N/A   Clear
5:15 PM 43.7 °F 41.1 °F 30.4 °F 59% 30.24 in 10.0 mi SW 4.6 mph - N/A   Clear
5:35 PM 42.4 °F 39.6 °F 29.8 °F 61% 30.24 in 10.0 mi SSW 4.6 mph - N/A   Clear
5:55 PM 40.5 °F 36.5 °F 30.4 °F 67% 30.24 in 10.0 mi SSW 5.8 mph - N/A   Clear
6:15 PM 39.2 °F 35.9 °F 30.0 °F 70% 30.24 in 10.0 mi South 4.6 mph - N/A   Clear
6:35 PM 39.7 °F 34.9 °F 31.5 °F 72% 30.24 in 10.0 mi South 6.9 mph - N/A   Clear
6:55 PM 41.4 °F 36.8 °F 31.3 °F 67% 30.23 in 7.0 mi South 6.9 mph - N/A   Scattered Clouds
7:15 PM 40.8 °F 36.2 °F 31.1 °F 68% 30.22 in 10.0 mi South 6.9 mph - N/A   Scattered Clouds
7:35 PM 40.8 °F 36.9 °F 30.2 °F 66% 30.22 in 10.0 mi South 5.8 mph - N/A   Clear
7:55 PM 40.8 °F 36.2 °F 29.7 °F 64% 30.22 in 10.0 mi South 6.9 mph - N/A   Clear
8:15 PM 39.7 °F 35.6 °F 29.3 °F 66% 30.21 in 10.0 mi SSE 5.8 mph - N/A   Clear
8:35 PM 39.4 °F 33.2 °F 29.3 °F 67% 30.20 in 10.0 mi South 9.2 mph - N/A   Clear
8:55 PM 40.3 °F 34.4 °F 29.1 °F 64% 30.20 in 10.0 mi South 9.2 mph - N/A   Clear
9:15 PM 40.8 °F 35.0 °F 29.3 °F 64% 30.19 in 10.0 mi SSE 9.2 mph - N/A   Clear
9:35 PM 41.2 °F 35.5 °F 29.1 °F 62% 30.18 in 10.0 mi SSE 9.2 mph - N/A   Clear
9:55 PM 41.2 °F 35.0 °F 29.3 °F 63% 30.19 in 10.0 mi South 10.4 mph - N/A   Clear
10:15 PM 41.2 °F 36.0 °F 29.5 °F 63% 30.20 in 10.0 mi South 8.1 mph - N/A   Clear
10:35 PM 41.0 °F 35.2 °F 29.8 °F 64% 30.19 in 10.0 mi South 9.2 mph - N/A   Clear
10:55 PM 41.0 °F 35.2 °F 29.8 °F 64% 30.19 in 10.0 mi South 9.2 mph - N/A   Clear
11:15 PM 41.0 °F 35.8 °F 30.0 °F 65% 30.18 in 10.0 mi South 8.1 mph - N/A   Clear
11:35 PM 41.0 °F 35.2 °F 29.8 °F 64% 30.16 in 10.0 mi South 9.2 mph - N/A   Clear
11:55 PM 41.5 °F 35.4 °F 29.5 °F 62% 30.16 in 10.0 mi South 10.4 mph - N/A   Clear